Regional Weather Roundup
Issued by NWS

Home | Current Version | Previous Version | Text Only | Print | Product List | Glossary Off
Versions: 1 2 3 4 5 6 7 8 9 10 11 12 13 14 15 16 17 18 19 20 21 22 23 24 25 26 27 28 29 30 31 32 33 34 35 36 37 38 39 40 41 42 43 44 45 46 47 48 49 50

000
ASUS43 KIND 311959
RWRIN

WEATHER ROUNDUP FOR INDIANA
NATIONAL WEATHER SERVICE INDIANAPOLIS IN
400 PM EDT FRI JUL 31 2015

NOTE: "FAIR" INDICATES FEW OR NO CLOUDS BELOW 12,000 FEET WITH NO
SIGNIFICANT WEATHER AND/OR OBSTRUCTIONS TO VISIBILITY.

* - STATION DOES NOT REPORT WEATHER SUCH AS PRECIPITATION OR FOG.

+ - STATION NOT QUALITY CONTROLLED BY THE NATIONAL WEATHER SERVICE.
    USE DATA WITH CAUTION...ESPECIALLY DEWPOINT AND RELATIVE
    HUMIDITY OBSERVATIONS.

INZ001>003-010>013-019-020-312100-
NORTHWEST INDIANA

CITY           SKY/WX    TMP DP  RH WIND       PRES   REMARKS
GARY /AIRPORT/ MOSUNNY   88  52  29 W16G32    29.95F
RENSSELAER +   SUNNY     86  54  32 W13G23    29.97S

$$

LMZ046-743>745-312100-
SOUTHERN LAKE MICHIGAN

STATION/POSITION TIME  TEMP    WIND        PRES    WAVE
                       AIR SEA DIR/SP/G            HT
                 (UTC) (F)     (DEG/KT/KT) (MB)    (FT)
BURNS HARBOR     1900   78     330/  1/  4 1014.9F
MICHIGAN CITY    1900   79     260/  6/  6   N/A
5NW MICH CITY    1900   77 76  290/  4/  4   N/A     1

$$

INZ004-005-014>016-021>024-312100-
NORTH CENTRAL INDIANA

CITY           SKY/WX    TMP DP  RH WIND       PRES   REMARKS
ELKHART        SUNNY     84  48  28 NW14G24   29.95F
GOSHEN         MOSUNNY   84  53  34 NW21G26   29.94F
SOUTH BEND     SUNNY     86  53  32 NW17G24   29.95F

$$

INZ006>009-017-018-025>027-312100-
NORTHEAST INDIANA

CITY           SKY/WX    TMP DP  RH WIND       PRES   REMARKS
ANGOLA *+      SUNNY     84  57  39 NW13      29.93S
FORT WAYNE     PTSUNNY   75  63  66 W14G29    29.95R

$$

INZ028-029-035-036-043>045-051>053-312100-
WEST CENTRAL INDIANA

CITY           SKY/WX    TMP DP  RH WIND       PRES   REMARKS
CRAWFORDSVL +  MOSUNNY   83  55  37 W15         N/A
GREENCASTLE +  MOSUNNY   86  63  45 CALM      30.02F
LAFAYETTE      MOSUNNY   85  64  49 W18G26    29.96F
TERRE HAUTE    MOSUNNY   89  60  37 W10G24    30.01F

$$

INZ030>032-037>040-046>048-054>057-064-065-312100-
CENTRAL INDIANA

CITY           SKY/WX    TMP DP  RH WIND       PRES   REMARKS
ANDERSON       SUNNY     86  48  26 W12       30.00F
INDIANAPOLIS   MOSUNNY   87  57  35 W16       30.00F
-EAGLE CREEK   SUNNY     86  60  41 W10G18    29.99F
KOKOMO *+      MOSUNNY   88  63  42 W18G28    29.96F
MT COMFORT *+  SUNNY     86  41  20 W13G21    30.00F
SHELBYVILLE    SUNNY     87  61  41 SW12      29.99F

$$

INZ033-034-041-042-049-050-058-059-312100-
EAST CENTRAL INDIANA

CITY           SKY/WX    TMP DP  RH WIND       PRES   REMARKS
MUNCIE         MOSUNNY   84  60  44 W12G22    29.97F

$$

INZ060-061-067>069-081>083-085>088-312100-
SOUTHWEST INDIANA

CITY           SKY/WX    TMP DP  RH WIND       PRES   REMARKS
EVANSVILLE     MOSUNNY   89  62  40 W7        30.04F
HUNTINGBURG *+ SUNNY     90  61  37 NW6       30.04F

$$

INZ062-063-066-070>080-084-089>092-312100-
SOUTH CENTRAL AND SOUTHEAST INDIANA

CITY           SKY/WX    TMP DP  RH WIND       PRES   REMARKS
BLOOMINGTON    SUNNY     86  61  42 NW8       30.03F
MADISON *+     MOSUNNY   86  55  35 W5        30.05S

$$




USA.gov is the U.S. government's official web portal to all federal, state and local government web resources and services.